| time (UTC) | temp F | wind direction | speed knots | gust knots | rain 1hr in | rain 24hr in | rain mn in | humidity % | barometer mb |
| 20260505194522 | 80 | 194 | 5.2 | 10.4 | 0.00 | 0.00 | 0.00 | 78 | 1007.8 |
| 20260505194007 | 80 | 204 | 7.0 | 12.2 | 0.00 | 0.00 | 0.00 | 76 | 1007.9 |
| 20260505193508 | 80 | 172 | 6.1 | 12.2 | 0.00 | 0.00 | 0.00 | 78 | 1007.9 |
| 20260505193025 | 79 | 203 | 5.2 | 13.9 | 0.00 | 0.00 | 0.00 | 79 | 1008.1 |
| 20260505192009 | 80 | 189 | 9.6 | 13.0 | 0.00 | 0.00 | 0.00 | 77 | 1008.0 |
| 20260505191511 | 80 | 207 | 7.0 | 12.2 | 0.00 | 0.00 | 0.00 | 78 | 1008.1 |
| 20260505191010 | 80 | 227 | 6.1 | 12.2 | 0.00 | 0.00 | 0.00 | 79 | 1008.0 |
| 20260505190509 | 79 | 220 | 5.2 | 12.2 | 0.00 | 0.00 | 0.00 | 79 | 1008.1 |
| 20260505190015 | 79 | 227 | 7.8 | 12.2 | 0.00 | 0.00 | 0.00 | 79 | 1008.2 |
| 20260505185513 | 79 | 202 | 7.8 | 14.8 | 0.00 | 0.00 | 0.00 | 79 | 1008.2 |
| 20260505185008 | 79 | 223 | 7.8 | 14.8 | 0.00 | 0.00 | 0.00 | 79 | 1008.2 |
| 20260505184516 | 79 | 248 | 7.0 | 14.8 | 0.00 | 0.00 | 0.00 | 79 | 1008.2 |
| 20260505184006 | 78 | 215 | 9.6 | 14.8 | 0.00 | 0.00 | 0.00 | 79 | 1008.2 |
| 20260505183508 | 79 | 207 | 7.8 | 14.8 | 0.00 | 0.00 | 0.00 | 80 | 1008.2 |
| 20260505183018 | 78 | 209 | 7.8 | 14.8 | 0.00 | 0.00 | 0.00 | 82 | 1008.2 |
| 20260505182512 | 78 | 211 | 7.8 | 17.4 | 0.00 | 0.00 | 0.00 | 81 | 1008.2 |
| 20260505182012 | 78 | 219 | 8.7 | 17.4 | 0.00 | 0.00 | 0.00 | 81 | 1008.3 |
| 20260505181008 | 77 | 182 | 9.6 | 15.6 | 0.00 | 0.00 | 0.00 | 82 | 1008.5 |
| 20260505180508 | 77 | 221 | 8.7 | 13.9 | 0.00 | 0.00 | 0.00 | 81 | 1008.5 |
| 20260505180020 | 77 | 200 | 7.0 | 13.0 | 0.00 | 0.00 | 0.00 | 82 | 1008.5 |
| 20260505175508 | 76 | 191 | 7.8 | 13.0 | 0.00 | 0.00 | 0.00 | 82 | 1008.6 |
| 20260505175011 | 76 | 190 | 7.0 | 13.0 | 0.00 | 0.00 | 0.00 | 84 | 1008.6 |
| 20260505174535 | 76 | 180 | 5.2 | 12.2 | 0.00 | 0.00 | 0.00 | 84 | 1008.7 |
| 20260505174008 | 76 | 221 | 6.1 | 12.2 | 0.00 | 0.00 | 0.00 | 84 | 1008.8 |
| 20260505173508 | 76 | 207 | 6.1 | 10.4 | 0.00 | 0.00 | 0.00 | 84 | 1008.9 |
| 20260505173028 | 75 | 224 | 7.0 | 14.8 | 0.00 | 0.00 | 0.00 | 84 | 1008.8 |
| 20260505172507 | 75 | 216 | 7.0 | 14.8 | 0.00 | 0.00 | 0.00 | 84 | 1008.8 |
| 20260505172008 | 75 | 207 | 7.8 | 14.8 | 0.00 | 0.00 | 0.00 | 84 | 1008.8 |
| 20260505171524 | 75 | 215 | 7.0 | 13.9 | 0.00 | 0.00 | 0.00 | 84 | 1008.9 |
| 20260505171011 | 75 | 217 | 7.0 | 13.9 | 0.00 | 0.00 | 0.00 | 84 | 1008.9 |
| 20260505170019 | 75 | 173 | 7.8 | 14.8 | 0.00 | 0.00 | 0.00 | 85 | 1009.0 |
| 20260505165513 | 74 | 191 | 8.7 | 13.9 | 0.00 | 0.00 | 0.00 | 85 | 1009.1 |
| 20260505165008 | 74 | 233 | 7.0 | 13.0 | 0.00 | 0.00 | 0.00 | 86 | 1009.1 |
| 20260505164512 | 74 | 209 | 8.7 | 13.0 | 0.00 | 0.00 | 0.00 | 86 | 1009.2 |
| 20260505164007 | 74 | 209 | 6.1 | 13.0 | 0.00 | 0.00 | 0.00 | 86 | 1009.1 |
| 20260505163507 | 74 | 222 | 8.7 | 11.3 | 0.00 | 0.00 | 0.00 | 86 | 1009.1 |
| 20260505163003 | 74 | 197 | 7.0 | 13.0 | 0.00 | 0.00 | 0.00 | 86 | 1009.0 |
| 20260505162504 | 74 | 194 | 8.7 | 14.8 | 0.00 | 0.00 | 0.00 | 86 | 1009.0 |
| 20260505162003 | 74 | 228 | 9.6 | 16.5 | 0.00 | 0.00 | 0.00 | 86 | 1009.0 |
| 20260505161506 | 74 | 205 | 9.6 | 16.5 | 0.00 | 0.00 | 0.00 | 86 | 1009.0 |
| 20260505161004 | 74 | 207 | 8.7 | 13.0 | 0.00 | 0.00 | 0.00 | 1009.0 | |
| 20260505160504 | 74 | 216 | 7.8 | 13.0 | 0.00 | 0.00 | 0.00 | 86 | 1008.9 |
| 20260505152004 | 73 | 175 | 7.8 | 17.4 | 0.00 | 0.00 | 0.00 | 1008.9 | |
| 20260505151503 | 73 | 195 | 9.6 | 17.4 | 0.00 | 0.00 | 0.00 | 86 | 1008.8 |
| 20260505151006 | 74 | 205 | 6.1 | 14.8 | 0.00 | 0.00 | 0.00 | 86 | 1008.8 |
| 20260505150506 | 73 | 211 | 9.6 | 14.8 | 0.00 | 0.00 | 0.00 | 86 | 1008.8 |
| 20260505140503 | 73 | 242 | 7.0 | 12.2 | 0.00 | 0.00 | 0.00 | 87 | 1008.2 |
| 20260505125003 | 72 | 215 | 8.7 | 14.8 | 0.00 | 0.00 | 0.00 | 87 | 1007.9 |
| 20260505124507 | 71 | 209 | 7.0 | 11.3 | 0.00 | 0.00 | 0.00 | 87 | 1007.8 |
| 20260505124007 | 71 | 173 | 7.0 | 12.2 | 0.00 | 0.00 | 0.00 | 87 | 1007.7 |
| 20260505123504 | 71 | 182 | 7.8 | 13.0 | 0.00 | 0.00 | 0.00 | 87 | 1007.7 |
| 20260505123012 | 71 | 186 | 7.8 | 13.9 | 0.00 | 0.00 | 0.00 | 87 | 1007.7 |
| 20260505122507 | 71 | 188 | 7.0 | 13.9 | 0.00 | 0.00 | 0.00 | 87 | 1007.6 |
| 20260505122008 | 71 | 155 | 7.0 | 11.3 | 0.00 | 0.00 | 0.00 | 86 | 1007.5 |
| 20260505121510 | 71 | 189 | 7.0 | 10.4 | 0.00 | 0.00 | 0.00 | 86 | 1007.5 |
| 20260505121007 | 71 | 209 | 6.1 | 12.2 | 0.00 | 0.00 | 0.00 | 86 | 1007.6 |
| 20260505120508 | 71 | 197 | 6.1 | 13.0 | 0.00 | 0.00 | 0.00 | 86 | 1007.6 |
| 20260505115505 | 71 | 200 | 7.0 | 12.2 | 0.00 | 0.00 | 0.00 | 86 | 1007.5 |
| 20260505115004 | 71 | 161 | 4.3 | 11.3 | 0.00 | 0.00 | 0.00 | 86 | 1007.4 |
| 20260505114508 | 71 | 179 | 7.0 | 11.3 | 0.00 | 0.00 | 0.00 | 86 | 1007.2 |
| 20260505114006 | 70 | 167 | 7.0 | 11.3 | 0.00 | 0.00 | 0.00 | 86 | 1007.2 |
| 20260505113506 | 70 | 200 | 6.1 | 13.0 | 0.00 | 0.00 | 0.00 | 86 | 1007.1 |
| 20260505113011 | 70 | 196 | 5.2 | 13.0 | 0.00 | 0.00 | 0.00 | 86 | 1007.3 |
| 20260505112506 | 70 | 186 | 5.2 | 10.4 | 0.00 | 0.00 | 0.00 | 86 | 1007.4 |
| 20260505112007 | 70 | 202 | 7.0 | 11.3 | 0.00 | 0.00 | 0.00 | 86 | 1007.4 |
| 20260505111516 | 70 | 195 | 7.0 | 11.3 | 0.00 | 0.00 | 0.00 | 87 | 1007.4 |
| 20260505111010 | 70 | 183 | 7.8 | 13.9 | 0.00 | 0.00 | 0.00 | 87 | 1007.4 |
| 20260505110507 | 70 | 223 | 5.2 | 13.9 | 0.00 | 0.00 | 0.00 | 87 | 1007.4 |
| 20260505102008 | 69 | 199 | 5.2 | 9.6 | 0.00 | 0.00 | 0.00 | 88 | 1007.5 |
| 20260505101517 | 69 | 190 | 6.1 | 9.6 | 0.00 | 0.00 | 0.00 | 88 | 1007.5 |
| 20260505101007 | 69 | 182 | 5.2 | 9.6 | 0.00 | 0.00 | 0.00 | 88 | 1007.6 |
| 20260505100508 | 69 | 167 | 5.2 | 9.6 | 0.00 | 0.00 | 0.00 | 88 | 1007.7 |
| 20260505100022 | 69 | 184 | 5.2 | 10.4 | 0.00 | 0.00 | 0.00 | 87 | 1007.6 |
| 20260505095507 | 70 | 189 | 5.2 | 11.3 | 0.00 | 0.00 | 0.00 | 87 | 1007.4 |
| 20260505095006 | 70 | 164 | 5.2 | 11.3 | 0.00 | 0.00 | 0.00 | 87 | 1007.4 |
| 20260505094523 | 70 | 209 | 6.1 | 11.3 | 0.00 | 0.00 | 0.00 | 87 | 1007.5 |
| 20260505094006 | 70 | 169 | 6.1 | 11.3 | 0.00 | 0.00 | 0.00 | 86 | 1007.5 |
| 20260505093507 | 70 | 198 | 7.0 | 10.4 | 0.00 | 0.00 | 0.00 | 86 | 1007.6 |
| 20260505093031 | 70 | 213 | 7.0 | 12.2 | 0.00 | 0.00 | 0.00 | 86 | 1007.7 |
| 20260505092506 | 70 | 167 | 7.0 | 12.2 | 0.00 | 0.00 | 0.00 | 86 | 1007.5 |
| 20260505092007 | 70 | 186 | 6.1 | 12.2 | 0.00 | 0.00 | 0.00 | 86 | 1007.6 |
| 20260505091507 | 70 | 184 | 7.0 | 11.3 | 0.00 | 0.00 | 0.00 | 86 | 1007.7 |
| 20260505091007 | 70 | 202 | 7.0 | 11.3 | 0.00 | 0.00 | 0.00 | 87 | 1007.7 |
| 20260505090505 | 70 | 203 | 6.1 | 13.9 | 0.00 | 0.00 | 0.00 | 87 | 1007.7 |
| 20260505090011 | 70 | 200 | 4.3 | 13.0 | 0.00 | 0.00 | 0.00 | 87 | 1007.7 |
| 20260505085511 | 70 | 176 | 6.1 | 10.4 | 0.00 | 0.00 | 0.00 | 87 | 1007.6 |
| 20260505085007 | 70 | 168 | 5.2 | 10.4 | 0.00 | 0.00 | 0.00 | 87 | 1007.7 |
| 20260505084512 | 70 | 180 | 5.2 | 10.4 | 0.00 | 0.00 | 0.00 | 87 | 1007.9 |
| 20260505084006 | 70 | 215 | 5.2 | 11.3 | 0.00 | 0.00 | 0.00 | 87 | 1008.0 |
| 20260505083510 | 70 | 186 | 6.1 | 11.3 | 0.00 | 0.00 | 0.00 | 86 | 1007.9 |
| 20260505083011 | 70 | 213 | 6.1 | 12.2 | 0.00 | 0.00 | 0.00 | 86 | 1008.0 |
| 20260505082507 | 70 | 140 | 6.1 | 12.2 | 0.00 | 0.00 | 0.00 | 87 | 1008.1 |
| 20260505082010 | 70 | 164 | 7.0 | 13.0 | 0.00 | 0.00 | 0.00 | 86 | 1008.3 |
| 20260505081510 | 70 | 168 | 6.1 | 13.0 | 0.00 | 0.00 | 0.00 | 86 | 1008.3 |
| 20260505081006 | 70 | 201 | 6.1 | 11.3 | 0.00 | 0.00 | 0.00 | 86 | 1008.3 |
| 20260505080505 | 70 | 194 | 6.1 | 13.9 | 0.00 | 0.00 | 0.00 | 86 | 1008.5 |
| 20260505080014 | 70 | 185 | 7.0 | 13.9 | 0.00 | 0.00 | 0.00 | 86 | 1008.5 |
| 20260505075507 | 70 | 179 | 7.8 | 13.0 | 0.00 | 0.00 | 0.00 | 86 | 1008.3 |
| 20260505075007 | 70 | 128 | 7.0 | 12.2 | 0.00 | 0.00 | 0.00 | 86 | 1008.3 |
| 20260505074519 | 70 | 173 | 7.0 | 12.2 | 0.00 | 0.00 | 0.00 | 86 | 1008.4 |
| 20260505074007 | 70 | 169 | 6.1 | 15.6 | 0.00 | 0.00 | 0.00 | 86 | 1008.4 |
| 20260505073003 | 70 | 202 | 6.1 | 12.2 | 0.00 | 0.00 | 0.00 | 86 | 1008.6 |
| 20260505072507 | 70 | 206 | 7.0 | 12.2 | 0.00 | 0.00 | 0.00 | 86 | 1008.7 |
| 20260505072004 | 70 | 184 | 5.2 | 12.2 | 0.00 | 0.00 | 0.00 | 86 | 1008.9 |
| 20260505071507 | 70 | 211 | 7.8 | 11.3 | 0.00 | 0.00 | 0.00 | 86 | 1008.8 |
| 20260505071004 | 70 | 175 | 6.1 | 15.6 | 0.00 | 0.00 | 0.00 | 86 | 1008.8 |
| 20260505070506 | 70 | 177 | 7.8 | 15.6 | 0.00 | 0.00 | 0.00 | 86 | 1008.9 |
| 20260505070011 | 70 | 204 | 7.0 | 14.8 | 0.00 | 0.00 | 0.00 | 86 | 1008.8 |
| 20260505065506 | 70 | 203 | 8.7 | 14.8 | 0.00 | 0.00 | 0.00 | 86 | 1008.8 |
| 20260505065003 | 70 | 187 | 7.0 | 14.8 | 0.00 | 0.00 | 0.00 | 86 | 1009.0 |
| 20260505064509 | 70 | 154 | 7.0 | 14.8 | 0.00 | 0.00 | 0.00 | 86 | 1009.1 |
| 20260505064008 | 70 | 196 | 7.0 | 14.8 | 0.00 | 0.00 | 0.00 | 86 | 1009.3 |
| 20260505063508 | 70 | 201 | 7.8 | 14.8 | 0.00 | 0.00 | 0.00 | 86 | 1009.3 |
| 20260505063008 | 70 | 192 | 7.8 | 14.8 | 0.00 | 0.00 | 0.00 | 85 | 1009.4 |
| 20260505062003 | 70 | 216 | 7.0 | 12.2 | 0.00 | 0.00 | 0.00 | 86 | 1009.5 |
| 20260505061508 | 70 | 188 | 7.8 | 16.5 | 0.00 | 0.00 | 0.00 | 85 | 1009.3 |
| 20260505061006 | 70 | 180 | 7.8 | 16.5 | 0.00 | 0.00 | 0.00 | 85 | 1009.5 |
| 20260505060506 | 70 | 188 | 8.7 | 13.9 | 0.00 | 0.00 | 0.00 | 85 | 1009.5 |
| 20260505060008 | 70 | 207 | 7.0 | 13.0 | 0.00 | 0.00 | 0.00 | 85 | 1009.5 |
| 20260505055503 | 70 | 168 | 7.0 | 13.0 | 0.00 | 0.00 | 0.00 | 85 | 1009.4 |
| 20260505055007 | 70 | 160 | 7.8 | 15.6 | 0.00 | 0.00 | 0.00 | 85 | 1009.2 |
| 20260505054515 | 70 | 185 | 7.0 | 15.6 | 0.00 | 0.00 | 0.00 | 85 | 1009.1 |
| 20260505053508 | 70 | 160 | 7.0 | 17.4 | 0.00 | 0.00 | 0.00 | 85 | 1008.9 |
| 20260505053014 | 70 | 133 | 8.7 | 17.4 | 0.00 | 0.00 | 0.00 | 85 | 1009.0 |
| 20260505052509 | 70 | 194 | 8.7 | 14.8 | 0.00 | 0.00 | 0.00 | 85 | 1009.0 |
| 20260505052009 | 70 | 175 | 7.8 | 17.4 | 0.00 | 0.00 | 0.00 | 84 | 1009.0 |
| 20260505051004 | 70 | 146 | 7.0 | 15.6 | 0.00 | 0.00 | 0.00 | 84 | 1009.2 |
| 20260505050506 | 70 | 175 | 9.6 | 14.8 | 0.00 | 0.00 | 0.00 | 84 | 1009.2 |
| 20260505041524 | 71 | 164 | 6.1 | 13.9 | 0.00 | 0.00 | 0.00 | 82 | 1009.6 |
| 20260505041004 | 71 | 197 | 7.8 | 13.9 | 0.00 | 0.00 | 0.00 | 82 | 1009.7 |
| 20260505040025 | 72 | 184 | 7.0 | 14.8 | 0.00 | 0.00 | 0.00 | 81 | 1009.5 |
| 20260505035505 | 72 | 138 | 7.0 | 14.8 | 0.00 | 0.00 | 0.00 | 81 | 1009.5 |
| 20260505035004 | 72 | 175 | 6.1 | 13.9 | 0.00 | 0.00 | 0.00 | 81 | 1009.5 |
| 20260505034515 | 72 | 224 | 5.2 | 13.9 | 0.00 | 0.00 | 0.00 | 81 | 1009.5 |
| 20260505034004 | 72 | 153 | 5.2 | 13.0 | 0.00 | 0.00 | 0.00 | 80 | 1009.5 |
| 20260505033506 | 72 | 205 | 7.0 | 13.0 | 0.00 | 0.00 | 0.00 | 80 | 1009.6 |
| 20260505033016 | 72 | 149 | 6.1 | 13.0 | 0.00 | 0.00 | 0.00 | 79 | 1009.5 |
| 20260505032508 | 72 | 196 | 6.1 | 12.2 | 0.00 | 0.00 | 0.00 | 79 | 1009.5 |
| 20260505032007 | 72 | 142 | 6.1 | 15.6 | 0.00 | 0.00 | 0.00 | 79 | 1009.3 |
| 20260505031008 | 73 | 184 | 7.0 | 13.9 | 0.00 | 0.00 | 0.00 | 79 | 1009.6 |
| 20260505030509 | 73 | 186 | 6.1 | 13.9 | 0.00 | 0.00 | 0.00 | 79 | 1009.7 |
| 20260505030008 | 73 | 178 | 5.2 | 13.0 | 0.00 | 0.00 | 0.00 | 79 | 1009.5 |
| 20260505025011 | 73 | 159 | 5.2 | 11.3 | 0.00 | 0.00 | 0.00 | 78 | 1009.2 |
| 20260505024511 | 73 | 161 | 5.2 | 9.6 | 0.00 | 0.00 | 0.00 | 78 | 1009.3 |
| 20260505024005 | 73 | 183 | 4.3 | 10.4 | 0.00 | 0.00 | 0.00 | 78 | 1009.2 |
| 20260505023504 | 73 | 166 | 5.2 | 10.4 | 0.00 | 0.00 | 0.00 | 77 | 1009.2 |
| 20260505023014 | 73 | 137 | 6.1 | 10.4 | 0.00 | 0.00 | 0.00 | 77 | 1009.2 |
| 20260505022504 | 73 | 162 | 4.3 | 10.4 | 0.00 | 0.00 | 0.00 | 77 | 1009.2 |
| 20260505022008 | 73 | 170 | 4.3 | 10.4 | 0.00 | 0.00 | 0.00 | 77 | 1009.1 |
| 20260505021519 | 74 | 201 | 4.3 | 10.4 | 0.00 | 0.00 | 0.00 | 77 | 1009.1 |
| 20260505021007 | 74 | 184 | 4.3 | 8.7 | 0.00 | 0.00 | 0.00 | 76 | 1009.1 |
| 20260505020507 | 74 | 169 | 4.3 | 8.7 | 0.00 | 0.00 | 0.00 | 76 | 1009.0 |
| 20260505020019 | 74 | 192 | 3.5 | 8.7 | 0.00 | 0.00 | 0.00 | 75 | 1009.0 |
| 20260505015512 | 74 | 140 | 4.3 | 8.7 | 0.00 | 0.00 | 0.00 | 75 | 1009.0 |
| 20260505015004 | 74 | 184 | 3.5 | 7.8 | 0.00 | 0.00 | 0.00 | 74 | 1009.0 |
| 20260505014519 | 75 | 172 | 4.3 | 8.7 | 0.00 | 0.00 | 0.00 | 74 | 1009.1 |
| 20260505014017 | 75 | 190 | 4.3 | 8.7 | 0.00 | 0.00 | 0.00 | 74 | 1009.0 |
| 20260505013504 | 75 | 167 | 4.3 | 9.6 | 0.00 | 0.00 | 0.00 | 73 | 1009.0 |
| 20260505012010 | 75 | 188 | 4.3 | 9.6 | 0.00 | 0.00 | 0.00 | 72 | 1008.9 |
| 20260505011513 | 76 | 169 | 4.3 | 11.3 | 0.00 | 0.00 | 0.00 | 71 | 1008.9 |
| 20260505011009 | 76 | 168 | 4.3 | 11.3 | 0.00 | 0.00 | 0.00 | 70 | 1008.9 |
| 20260505010508 | 76 | 169 | 5.2 | 10.4 | 0.00 | 0.00 | 0.00 | 70 | 1008.9 |
| 20260505010022 | 76 | 128 | 4.3 | 9.6 | 0.00 | 0.00 | 0.00 | 70 | 1008.9 |
| 20260505005507 | 77 | 186 | 6.1 | 11.3 | 0.00 | 0.00 | 0.00 | 69 | 1008.8 |
| 20260505005008 | 77 | 178 | 4.3 | 11.3 | 0.00 | 0.00 | 0.00 | 68 | 1008.8 |
| 20260505004525 | 77 | 224 | 5.2 | 12.2 | 0.00 | 0.00 | 0.00 | 68 | 1008.8 |
| 20260505003507 | 77 | 179 | 6.1 | 11.3 | 0.00 | 0.00 | 0.00 | 68 | 1008.7 |
| 20260505003024 | 78 | 155 | 4.3 | 11.3 | 0.00 | 0.00 | 0.00 | 67 | 1008.6 |
| 20260505002509 | 78 | 165 | 7.0 | 11.3 | 0.00 | 0.00 | 0.00 | 66 | 1008.6 |
| 20260505002008 | 78 | 166 | 7.0 | 11.3 | 0.00 | 0.00 | 0.00 | 66 | 1008.8 |
| 20260505001512 | 78 | 170 | 5.2 | 11.3 | 0.00 | 0.00 | 0.00 | 65 | 1008.8 |
| 20260505001008 | 79 | 169 | 5.2 | 13.9 | 0.00 | 0.00 | 0.00 | 65 | 1008.9 |
| 20260505000506 | 79 | 196 | 7.0 | 13.9 | 0.00 | 0.00 | 0.00 | 64 | 1009.0 |
| 20260505000017 | 79 | 170 | 6.1 | 12.2 | 0.00 | 0.00 | 0.00 | 65 | 1008.9 |
| 20260504235508 | 79 | 192 | 6.1 | 11.3 | 0.00 | 0.00 | 0.00 | 64 | 1008.9 |
| 20260504235008 | 79 | 184 | 7.0 | 12.2 | 0.00 | 0.00 | 0.00 | 64 | 1008.9 |
| 20260504234521 | 79 | 180 | 7.0 | 14.8 | 0.00 | 0.00 | 0.00 | 64 | 1009.0 |
| 20260504234008 | 79 | 167 | 8.7 | 14.8 | 0.00 | 0.00 | 0.00 | 63 | 1009.0 |
| 20260504233507 | 79 | 199 | 8.7 | 13.9 | 0.00 | 0.00 | 0.00 | 62 | 1009.1 |
| 20260504233014 | 80 | 214 | 7.8 | 13.0 | 0.00 | 0.00 | 0.00 | 63 | 1009.1 |
| 20260504232012 | 80 | 165 | 6.1 | 10.4 | 0.00 | 0.00 | 0.00 | 63 | 1009.1 |
| 20260504231526 | 80 | 186 | 6.1 | 10.4 | 0.00 | 0.00 | 0.00 | 62 | 1009.1 |
| 20260504231008 | 80 | 194 | 4.3 | 13.9 | 0.00 | 0.00 | 0.00 | 63 | 1009.3 |
| 20260504230506 | 80 | 137 | 6.1 | 13.9 | 0.00 | 0.00 | 0.00 | 61 | 1009.2 |
| 20260504230018 | 80 | 192 | 6.1 | 13.9 | 0.00 | 0.00 | 0.00 | 62 | 1009.4 |
| 20260504225511 | 80 | 196 | 7.0 | 13.9 | 0.00 | 0.00 | 0.00 | 61 | 1009.3 |
| 20260504225008 | 81 | 197 | 7.8 | 13.0 | 0.00 | 0.00 | 0.00 | 60 | 1009.4 |
| 20260504224522 | 81 | 138 | 6.1 | 11.3 | 0.00 | 0.00 | 0.00 | 61 | 1009.4 |
| 20260504224010 | 80 | 200 | 7.0 | 14.8 | 0.00 | 0.00 | 0.00 | 60 | 1009.5 |
| 20260504223508 | 80 | 229 | 7.8 | 14.8 | 0.00 | 0.00 | 0.00 | 62 | 1009.5 |
| 20260504223022 | 80 | 195 | 7.8 | 14.8 | 0.00 | 0.00 | 0.00 | 60 | 1009.6 |
| 20260504222510 | 81 | 196 | 8.7 | 15.6 | 0.00 | 0.00 | 0.00 | 61 | 1009.6 |
| 20260504222009 | 81 | 205 | 8.7 | 15.6 | 0.00 | 0.00 | 0.00 | 59 | 1009.7 |
| 20260504221011 | 81 | 162 | 9.6 | 16.5 | 0.00 | 0.00 | 0.00 | 59 | 1009.8 |
| 20260504220014 | 81 | 199 | 7.8 | 13.9 | 0.00 | 0.00 | 0.00 | 60 | 1009.8 |
| 20260504215509 | 80 | 192 | 7.8 | 13.9 | 0.00 | 0.00 | 0.00 | 60 | 1009.8 |
| 20260504215008 | 80 | 177 | 7.0 | 14.8 | 0.00 | 0.00 | 0.00 | 60 | 1009.9 |
| 20260504214518 | 81 | 209 | 8.7 | 14.8 | 0.00 | 0.00 | 0.00 | 60 | 1010.0 |
| 20260504214009 | 80 | 200 | 6.1 | 15.6 | 0.00 | 0.00 | 0.00 | 61 | 1010.0 |
| 20260504213508 | 81 | 183 | 7.8 | 15.6 | 0.00 | 0.00 | 0.00 | 61 | 1010.1 |
| 20260504213024 | 81 | 138 | 8.7 | 14.8 | 0.00 | 0.00 | 0.00 | 59 | 1010.2 |
| 20260504212507 | 81 | 216 | 7.8 | 14.8 | 0.00 | 0.00 | 0.00 | 63 | 1010.2 |
| 20260504212009 | 80 | 163 | 7.0 | 14.8 | 0.00 | 0.00 | 0.00 | 61 | 1010.3 |
| 20260504211525 | 80 | 192 | 8.7 | 14.8 | 0.00 | 0.00 | 0.00 | 61 | 1010.4 |
| 20260504211011 | 80 | 159 | 8.7 | 14.8 | 0.00 | 0.00 | 0.00 | 61 | 1010.6 |
| 20260504210032 | 80 | 195 | 8.7 | 15.6 | 0.00 | 0.00 | 0.00 | 60 | 1010.7 |
| 20260504205007 | 80 | 166 | 8.7 | 12.2 | 0.00 | 0.00 | 0.00 | 61 | 1011.0 |
| 20260504204506 | 80 | 192 | 6.1 | 13.0 | 0.00 | 0.00 | 0.00 | 62 | 1011.1 |
| 20260504203506 | 79 | 149 | 7.8 | 13.0 | 0.00 | 0.00 | 0.00 | 62 | 1011.4 |
| 20260504203004 | 79 | 173 | 7.0 | 13.0 | 0.00 | 0.00 | 0.00 | 62 | 1011.5 |
| 20260504202504 | 79 | 159 | 7.0 | 13.0 | 0.00 | 0.00 | 0.00 | 63 | 1011.6 |
| 20260504202004 | 79 | 159 | 7.0 | 13.9 | 0.00 | 0.00 | 0.00 | 63 | 1011.8 |
| 20260504201508 | 79 | 194 | 6.1 | 13.9 | 0.00 | 0.00 | 0.00 | 63 | 1011.9 |
| 20260504201005 | 79 | 201 | 7.0 | 11.3 | 0.00 | 0.00 | 0.00 | 64 | 1012.0 |
| 20260504200504 | 79 | 191 | 5.2 | 13.0 | 0.00 | 0.00 | 0.00 | 63 | 1012.1 |
| 20260504200014 | 78 | 170 | 6.1 | 13.0 | 0.00 | 0.00 | 0.00 | 63 | 1012.3 |
| 20260504195506 | 78 | 163 | 6.1 | 13.9 | 0.00 | 0.00 | 0.00 | 61 | 1012.3 |
| 20260504195003 | 79 | 184 | 6.1 | 13.9 | 0.00 | 0.00 | 0.00 | 63 | 1012.2 |